South Arkansas Regional At Goodwin Field El Dorado US
ICAO: KELD
IATA: ELD
Category: Medium
Scheduled Services: Yes

Elevation: 277 ft
TransAlt. 18000 ft.

Airport Communications:
FORT WORTH CNTR:126.32
ASOS:118.325
JONESBORO RDO:122.65
CTAF/UNICOM:123

KELD Zoom In..

Runways:

(A) RW 04 length 6601 ft width 150 ft
---- / hdg 43

(B) RW 13 length 5100 ft width 100 ft
---- / hdg 133

(C) RW 17 length 3733 ft width 75 ft
---- / hdg 178

(D) RW 22 length 6601 ft width 150 ft
ILS 111.10 / hdg 223

(E) RW 31 length 5100 ft width 100 ft
---- / hdg 313

(F) RW 35 length 3733 ft width 75 ft
---- / hdg 358

Location; KELD
Day. 03 / Time. 09.53 Zulu
* Altimeter: 30.16
* Temperature: 06° c. 42.8°f.
* Wind from: 100° Speed 05 kn.
Dewpoint: 05° c.
Visibility: 4 Statute Miles.
Clouds: Overcast 3300 ft.
Conditions: Mist.

KELD 030953Z AUTO 10005KT 4SM +RA BR OVC033 06/05 A3016 RMK AO2 SLP211 P0007 T00610050

Going to: --> -->


Wind From 100°
Speed 05 kn.

 
 
jpsmedia worldairports.se 2020   terms of use